DLH212 ENBR-EDDS

Flight info

Callsign DLH212
Flight time 1h 46m
Altitude 32997
Route TUXIL4C TUXIL DCT ZOL L621 AAL DCT ALASA DCT ELNAT DCT SILWE DCT OSBIT P605 TOSTU T726 LBU DCT
Aircraft B77W/H-SDE1E2E3FGHIJ2J3J4J5M1RWXY/LB1D1

Departure

Time 2026-05-06 16:45
Airport Bergen Airport, Flesland (ENBR)

Arrival

Time 2026-05-06 18:31
Airport Stuttgart Airport (EDDS)
Time Latitude Longitude Altitude Speed Heading
2026-05-06 16:27 60.29684 5.22237 162 ft 0 kts 84°
2026-05-06 16:39 60.29684 5.22243 162 ft 1 kts 78°
2026-05-06 16:40 60.29696 5.22271 162 ft 0 kts 40°
2026-05-06 16:40 60.29709 5.22279 162 ft 4 kts
2026-05-06 16:40 60.29735 5.22244 162 ft 6 kts 299°
2026-05-06 16:40 60.29741 5.22133 162 ft 10 kts 271°
2026-05-06 16:41 60.29784 5.22005 163 ft 13 kts 334°
2026-05-06 16:41 60.29887 5.21960 164 ft 17 kts 353°
2026-05-06 16:41 60.30014 5.21913 165 ft 20 kts 343°
2026-05-06 16:41 60.30160 5.21851 166 ft 23 kts 351°
2026-05-06 16:42 60.30330 5.21796 168 ft 26 kts 351°
2026-05-06 16:42 60.30520 5.21734 169 ft 29 kts 351°
2026-05-06 16:42 60.30643 5.21623 170 ft 0 kts 292°
2026-05-06 16:42 60.30645 5.21609 171 ft 3 kts 281°
2026-05-06 16:43 60.30644 5.21539 171 ft 7 kts 264°
2026-05-06 16:43 60.30619 5.21443 172 ft 9 kts 215°
2026-05-06 16:43 60.30546 5.21420 170 ft 1 kts 171°
2026-05-06 16:44 60.30161 5.21549 165 ft 121 kts 171°
2026-05-06 16:44 60.28915 5.21965 316 ft 228 kts 171°
2026-05-06 16:45 60.27343 5.22473 2327 ft 228 kts 173°
2026-05-06 16:45 60.25710 5.22991 4026 ft 244 kts 173°
2026-05-06 16:45 60.23989 5.23545 5102 ft 257 kts 173°
2026-05-06 16:45 60.22188 5.24142 6187 ft 266 kts 173°
2026-05-06 16:46 60.20367 5.24948 7173 ft 271 kts 170°
2026-05-06 16:46 60.18477 5.25046 8082 ft 273 kts 191°
2026-05-06 16:46 60.16599 5.24406 9187 ft 278 kts 192°
2026-05-06 16:46 60.14684 5.23747 10351 ft 282 kts 192°
2026-05-06 16:47 60.12688 5.23064 11055 ft 303 kts 193°
2026-05-06 16:47 60.10492 5.22314 11354 ft 337 kts 193°
2026-05-06 16:47 60.08929 5.21778 11796 ft 349 kts 193°
2026-05-06 16:47 60.05658 5.20713 13200 ft 361 kts 194°
2026-05-06 16:48 60.04004 5.20262 14042 ft 363 kts 193°
2026-05-06 16:48 60.01488 5.19669 15219 ft 365 kts 193°
2026-05-06 16:48 59.98952 5.19130 16349 ft 369 kts 193°
2026-05-06 16:48 59.96379 5.18612 16991 ft 374 kts 193°
2026-05-06 16:49 59.93760 5.18093 16995 ft 380 kts 193°
2026-05-06 16:49 59.91145 5.17589 17213 ft 374 kts 192°
2026-05-06 16:49 59.88555 5.17111 17609 ft 374 kts 191°
2026-05-06 16:49 59.85918 5.17571 18240 ft 401 kts 169°
2026-05-06 16:50 59.83409 5.20296 19145 ft 426 kts 145°
2026-05-06 16:50 59.81386 5.24669 19982 ft 432 kts 136°
2026-05-06 16:50 59.79359 5.29116 20670 ft 440 kts 140°
2026-05-06 16:50 59.77200 5.33492 21480 ft 445 kts 141°
2026-05-06 16:51 59.74985 5.37813 22406 ft 448 kts 142°
2026-05-06 16:51 59.72726 5.42157 23241 ft 455 kts 142°
2026-05-06 16:51 59.70433 5.46543 23948 ft 463 kts 142°
2026-05-06 16:51 59.68107 5.50998 24712 ft 466 kts 142°
2026-05-06 16:52 59.65780 5.55465 25544 ft 466 kts 143°
2026-05-06 16:52 59.63449 5.59948 26423 ft 467 kts 143°
2026-05-06 16:52 59.61118 5.64431 27176 ft 470 kts 143°
2026-05-06 16:52 59.58766 5.68943 27871 ft 473 kts 144°
2026-05-06 16:53 59.56391 5.73490 28564 ft 476 kts 144°
2026-05-06 16:53 59.54023 5.78018 29463 ft 474 kts 144°
2026-05-06 16:53 59.51668 5.82524 30424 ft 469 kts 144°
2026-05-06 16:53 59.49318 5.87004 30953 ft 473 kts 144°
2026-05-06 16:54 59.46939 5.91516 30986 ft 476 kts 144°
2026-05-06 16:54 59.42185 6.00513 30965 ft 481 kts 144°
2026-05-06 16:54 59.39736 6.05115 30996 ft 495 kts 143°
2026-05-06 16:55 59.37214 6.09844 30979 ft 507 kts 143°
2026-05-06 16:55 59.32021 6.19580 30965 ft 522 kts 143°
2026-05-06 16:56 59.26782 6.29405 30968 ft 522 kts 143°
2026-05-06 16:56 59.21513 6.39233 30954 ft 523 kts 143°
2026-05-06 16:57 59.16293 6.48913 30953 ft 522 kts 143°
2026-05-06 16:57 59.11032 6.58607 30943 ft 519 kts 143°
2026-05-06 16:58 59.05779 6.68257 31054 ft 519 kts 143°
2026-05-06 16:58 59.03162 6.73047 31550 ft 515 kts 143°
2026-05-06 16:58 59.00564 6.77797 32106 ft 511 kts 143°
2026-05-06 16:58 58.97996 6.82481 32676 ft 508 kts 143°
2026-05-06 16:59 58.95420 6.87164 33050 ft 509 kts 143°
2026-05-06 16:59 58.90184 6.96633 33017 ft 520 kts 143°
2026-05-06 17:00 58.85026 7.05927 33000 ft 522 kts 143°
2026-05-06 17:00 58.79724 7.15466 32985 ft 520 kts 143°
2026-05-06 17:01 58.74426 7.24951 32996 ft 519 kts 143°
2026-05-06 17:01 58.69142 7.34361 32987 ft 519 kts 143°
2026-05-06 17:02 58.65193 7.41366 32970 ft 518 kts 143°
2026-05-06 17:02 58.59886 7.50745 32980 ft 518 kts 143°
2026-05-06 17:03 58.54586 7.60073 32967 ft 517 kts 144°
2026-05-06 17:03 58.49280 7.69375 32966 ft 517 kts 144°
2026-05-06 17:04 58.43973 7.78634 32954 ft 517 kts 144°
2026-05-06 17:04 58.38653 7.87876 32957 ft 517 kts 144°
2026-05-06 17:05 58.33335 7.97077 32966 ft 517 kts 144°
2026-05-06 17:05 58.28148 8.06013 32969 ft 517 kts 144°
2026-05-06 17:06 58.22849 8.15106 32966 ft 516 kts 144°
2026-05-06 17:06 58.17525 8.24203 32955 ft 514 kts 144°
2026-05-06 17:07 58.12173 8.33310 32960 ft 513 kts 144°
2026-05-06 17:07 58.06857 8.42315 32965 ft 513 kts 144°
2026-05-06 17:08 58.01532 8.51297 32966 ft 513 kts 144°
2026-05-06 17:08 57.96214 8.60232 32963 ft 513 kts 145°
2026-05-06 17:09 57.90924 8.69121 32970 ft 513 kts 144°
2026-05-06 17:09 57.85681 8.78064 32961 ft 511 kts 144°
2026-05-06 17:10 57.80387 8.86943 32975 ft 511 kts 145°
2026-05-06 17:10 57.75054 8.95742 32972 ft 511 kts 145°
2026-05-06 17:11 57.69862 9.04248 32967 ft 511 kts 145°
2026-05-06 17:11 57.64517 9.12979 32957 ft 510 kts 145°
2026-05-06 17:12 57.59169 9.21687 32970 ft 510 kts 146°
2026-05-06 17:12 57.53817 9.30368 32972 ft 509 kts 145°
2026-05-06 17:13 57.48476 9.38994 32971 ft 509 kts 145°
2026-05-06 17:13 57.43123 9.47604 32970 ft 509 kts 145°
2026-05-06 17:14 57.37724 9.56255 32966 ft 509 kts 145°
2026-05-06 17:14 57.32375 9.64791 32959 ft 508 kts 145°
2026-05-06 17:15 57.27022 9.73301 32927 ft 507 kts 145°
2026-05-06 17:15 57.21676 9.81767 32962 ft 506 kts 145°
2026-05-06 17:16 57.16361 9.90152 32970 ft 506 kts 145°
2026-05-06 17:16 57.10639 9.97276 32961 ft 488 kts 164°
2026-05-06 17:17 57.04138 9.99770 32960 ft 470 kts 185°
2026-05-06 17:17 56.97639 9.99537 32944 ft 470 kts 186°
2026-05-06 17:18 56.91071 9.99363 32945 ft 474 kts 185°
2026-05-06 17:18 56.84460 9.99270 32922 ft 476 kts 185°
2026-05-06 17:19 56.77843 9.99212 32944 ft 476 kts 185°
2026-05-06 17:19 56.71218 9.99158 32947 ft 475 kts 185°
2026-05-06 17:20 56.64609 9.99101 32942 ft 474 kts 184°
2026-05-06 17:20 56.58015 9.99040 32939 ft 474 kts 184°
2026-05-06 17:21 56.51421 9.98978 32937 ft 473 kts 184°
2026-05-06 17:21 56.44838 9.98917 32935 ft 473 kts 184°
2026-05-06 17:22 56.38246 9.98856 32943 ft 473 kts 184°
2026-05-06 17:22 56.31657 9.98795 32927 ft 474 kts 184°
2026-05-06 17:23 56.25059 9.98735 32936 ft 474 kts 184°
2026-05-06 17:23 56.18453 9.98674 32941 ft 475 kts 184°
2026-05-06 17:24 56.11833 9.98614 32934 ft 476 kts 183°
2026-05-06 17:24 56.05216 9.98553 32928 ft 476 kts 183°
2026-05-06 17:25 55.98600 9.98493 32934 ft 477 kts 183°
2026-05-06 17:25 55.91998 9.98434 32926 ft 477 kts 183°
2026-05-06 17:26 55.85361 9.98374 32923 ft 477 kts 183°
2026-05-06 17:26 55.78698 9.98314 32934 ft 478 kts 183°
2026-05-06 17:27 55.72042 9.98255 32933 ft 479 kts 183°
2026-05-06 17:27 55.66498 9.98206 32933 ft 479 kts 183°
2026-05-06 17:28 55.59822 9.98147 32931 ft 479 kts 183°
2026-05-06 17:28 55.53149 9.98088 32931 ft 479 kts 183°
2026-05-06 17:29 55.46487 9.98029 32924 ft 479 kts 183°
2026-05-06 17:29 55.39807 9.97970 32924 ft 479 kts 183°
2026-05-06 17:30 55.33133 9.97912 32913 ft 480 kts 183°
2026-05-06 17:30 55.26453 9.97853 32921 ft 481 kts 183°
2026-05-06 17:31 55.19763 9.97794 32930 ft 481 kts 183°
2026-05-06 17:31 55.13066 9.97737 32932 ft 481 kts 183°
2026-05-06 17:32 55.06381 9.97679 32939 ft 481 kts 182°
2026-05-06 17:32 54.99717 9.97621 32937 ft 482 kts 182°
2026-05-06 17:33 54.93009 9.97564 32941 ft 483 kts 182°
2026-05-06 17:33 54.86291 9.97506 32931 ft 483 kts 182°
2026-05-06 17:34 54.79562 9.97449 32905 ft 484 kts 182°
2026-05-06 17:34 54.72825 9.97392 32911 ft 485 kts 182°
2026-05-06 17:35 54.66086 9.97335 32915 ft 485 kts 182°
2026-05-06 17:35 54.59326 9.97278 32907 ft 485 kts 182°
2026-05-06 17:36 54.49129 9.97192 32916 ft 487 kts 182°
2026-05-06 17:36 54.42384 9.97135 32920 ft 488 kts 182°
2026-05-06 17:37 54.35601 9.97079 32903 ft 488 kts 182°
2026-05-06 17:37 54.28808 9.97022 32919 ft 489 kts 182°
2026-05-06 17:38 54.22000 9.96965 32909 ft 490 kts 182°
2026-05-06 17:38 54.15178 9.96909 32909 ft 490 kts 182°
2026-05-06 17:39 54.08359 9.96853 32894 ft 490 kts 181°
2026-05-06 17:39 54.01516 9.96797 32899 ft 491 kts 181°
2026-05-06 17:40 53.94684 9.96741 32899 ft 492 kts 181°
2026-05-06 17:40 53.87884 9.96685 32889 ft 492 kts 181°
2026-05-06 17:41 53.81035 9.96630 32878 ft 493 kts 181°
2026-05-06 17:41 53.74173 9.96574 32887 ft 494 kts 181°
2026-05-06 17:42 53.67282 9.96518 32884 ft 495 kts 181°
2026-05-06 17:42 53.60395 9.96463 32885 ft 495 kts 181°
2026-05-06 17:43 53.53499 9.96408 32879 ft 496 kts 181°
2026-05-06 17:43 53.46606 9.96353 32887 ft 496 kts 181°
2026-05-06 17:44 53.39697 9.96298 32861 ft 496 kts 181°
2026-05-06 17:44 53.32789 9.96243 32862 ft 496 kts 181°
2026-05-06 17:45 53.25898 9.96189 32864 ft 495 kts 182°
2026-05-06 17:45 53.19000 9.96134 32859 ft 496 kts 182°
2026-05-06 17:46 53.12096 9.96079 32853 ft 495 kts 182°
2026-05-06 17:46 53.05212 9.96025 32863 ft 494 kts 182°
2026-05-06 17:47 52.98330 9.95972 32850 ft 494 kts 182°
2026-05-06 17:47 52.91451 9.95918 32856 ft 494 kts 182°
2026-05-06 17:48 52.84576 9.95865 32854 ft 494 kts 182°
2026-05-06 17:48 52.77748 9.95812 32854 ft 494 kts 182°
2026-05-06 17:49 52.70874 9.95759 32829 ft 493 kts 182°
2026-05-06 17:49 52.64013 9.95706 32834 ft 493 kts 182°
2026-05-06 17:50 52.57151 9.95653 32819 ft 493 kts 182°
2026-05-06 17:50 52.50304 9.95601 32836 ft 492 kts 182°
2026-05-06 17:51 52.43450 9.95549 32825 ft 491 kts 182°
2026-05-06 17:51 52.36619 9.95497 32820 ft 491 kts 182°
2026-05-06 17:52 52.29803 9.95446 32814 ft 488 kts 182°
2026-05-06 17:52 52.23025 9.95395 32819 ft 486 kts 182°
2026-05-06 17:53 52.16260 9.95343 32817 ft 485 kts 182°
2026-05-06 17:53 52.09503 9.95292 32804 ft 486 kts 182°
2026-05-06 17:54 52.02783 9.95241 32814 ft 486 kts 182°
2026-05-06 17:54 51.96032 9.95191 32810 ft 485 kts 182°
2026-05-06 17:55 51.89277 9.95141 32809 ft 486 kts 182°
2026-05-06 17:55 51.82516 9.95091 32799 ft 485 kts 182°
2026-05-06 17:56 51.75771 9.95042 32807 ft 484 kts 182°
2026-05-06 17:56 51.69041 9.94992 32800 ft 483 kts 182°
2026-05-06 17:57 51.62304 9.94942 32797 ft 483 kts 182°
2026-05-06 17:57 51.55574 9.94893 32803 ft 484 kts 182°
2026-05-06 17:58 51.48844 9.94842 32797 ft 484 kts 182°
2026-05-06 17:58 51.42095 9.94793 32801 ft 484 kts 182°
2026-05-06 17:59 51.35350 9.94745 32789 ft 485 kts 182°
2026-05-06 17:59 51.28597 9.94696 32803 ft 485 kts 182°
2026-05-06 18:00 51.21871 9.94647 32802 ft 486 kts 182°
2026-05-06 18:00 51.15083 9.94598 32787 ft 486 kts 182°
2026-05-06 18:01 51.08348 9.94550 32780 ft 482 kts 182°
2026-05-06 18:01 51.01642 9.94504 32788 ft 480 kts 182°
2026-05-06 18:02 50.94991 9.94456 32772 ft 478 kts 182°
2026-05-06 18:02 50.88350 9.94409 32782 ft 475 kts 183°
2026-05-06 18:03 50.81747 9.94361 32784 ft 473 kts 183°
2026-05-06 18:03 50.75221 9.94315 32777 ft 472 kts 183°
2026-05-06 18:04 50.71925 9.94290 32509 ft 476 kts 182°
2026-05-06 18:04 50.68615 9.94266 32111 ft 475 kts 182°
2026-05-06 18:04 50.65335 9.94244 31750 ft 470 kts 182°
2026-05-06 18:04 50.62073 9.94223 31386 ft 467 kts 182°
2026-05-06 18:05 50.58822 9.94200 31031 ft 465 kts 182°
2026-05-06 18:05 50.55604 9.94178 30676 ft 463 kts 182°
2026-05-06 18:05 50.52385 9.94155 30336 ft 461 kts 182°
2026-05-06 18:05 50.49173 9.94132 29986 ft 460 kts 182°
2026-05-06 18:06 50.45975 9.94109 29614 ft 459 kts 182°
2026-05-06 18:06 50.42780 9.94087 29193 ft 459 kts 181°
2026-05-06 18:06 50.39586 9.94066 28804 ft 458 kts 181°
2026-05-06 18:06 50.36408 9.94044 28413 ft 457 kts 181°
2026-05-06 18:07 50.33224 9.94021 28031 ft 456 kts 181°
2026-05-06 18:07 50.30054 9.93999 27654 ft 454 kts 181°
2026-05-06 18:07 50.26901 9.93977 27279 ft 452 kts 181°
2026-05-06 18:07 50.23728 9.93955 26919 ft 464 kts 181°
2026-05-06 18:08 50.20458 9.93929 26564 ft 472 kts 181°
2026-05-06 18:08 50.17169 9.93906 26211 ft 473 kts 181°
2026-05-06 18:08 50.13885 9.93883 25860 ft 471 kts 181°
2026-05-06 18:08 50.10604 9.93862 25501 ft 470 kts 181°
2026-05-06 18:09 50.07340 9.93840 25154 ft 469 kts 181°
2026-05-06 18:09 50.05181 9.93826 24923 ft 468 kts 181°
2026-05-06 18:09 50.01929 9.93805 24586 ft 467 kts 181°
2026-05-06 18:09 49.97636 9.93776 24140 ft 464 kts 181°
2026-05-06 18:10 49.94414 9.93754 23819 ft 463 kts 181°
2026-05-06 18:10 49.91199 9.93732 23484 ft 461 kts 181°
2026-05-06 18:10 49.89079 9.93717 23253 ft 459 kts 181°
2026-05-06 18:10 49.85893 9.93695 22868 ft 457 kts 181°
2026-05-06 18:11 49.82724 9.93673 22477 ft 455 kts 181°
2026-05-06 18:11 49.79557 9.93652 22109 ft 452 kts 181°
2026-05-06 18:11 49.76419 9.93630 21728 ft 450 kts 181°
2026-05-06 18:11 49.73292 9.93609 21363 ft 446 kts 181°
2026-05-06 18:12 49.70190 9.93588 21005 ft 443 kts 181°
2026-05-06 18:12 49.67122 9.93568 20645 ft 440 kts 181°
2026-05-06 18:12 49.64069 9.93547 20288 ft 437 kts 181°
2026-05-06 18:12 49.61043 9.93528 19929 ft 432 kts 181°
2026-05-06 18:13 49.58057 9.93508 19801 ft 427 kts 181°
2026-05-06 18:13 49.55092 9.93401 19804 ft 427 kts 185°
2026-05-06 18:13 49.52143 9.92808 19800 ft 426 kts 192°
2026-05-06 18:13 49.49268 9.91735 19780 ft 426 kts 195°
2026-05-06 18:14 49.46383 9.90604 19474 ft 427 kts 194°
2026-05-06 18:14 49.43552 9.89511 19405 ft 412 kts 194°
2026-05-06 18:14 49.40927 9.88511 19159 ft 374 kts 194°
2026-05-06 18:14 49.38538 9.87610 18607 ft 348 kts 194°
2026-05-06 18:15 49.36194 9.86730 18000 ft 328 kts 194°
2026-05-06 18:15 49.34038 9.85923 17330 ft 313 kts 194°
2026-05-06 18:15 49.32150 9.85216 16741 ft 306 kts 194°
2026-05-06 18:15 49.30907 9.84751 16371 ft 306 kts 194°
2026-05-06 18:16 49.28845 9.83980 15771 ft 305 kts 194°
2026-05-06 18:16 49.26781 9.83208 15164 ft 304 kts 194°
2026-05-06 18:16 49.24730 9.82444 14570 ft 303 kts 195°
2026-05-06 18:16 49.22680 9.81680 13993 ft 302 kts 195°
2026-05-06 18:17 49.20629 9.80915 13458 ft 308 kts 195°
2026-05-06 18:17 49.18526 9.80131 12849 ft 316 kts 195°
2026-05-06 18:17 49.16368 9.79328 12237 ft 320 kts 195°
2026-05-06 18:17 49.14193 9.78520 11624 ft 324 kts 195°
2026-05-06 18:18 49.11989 9.77703 11091 ft 326 kts 195°
2026-05-06 18:18 49.09823 9.76902 10917 ft 315 kts 195°
2026-05-06 18:18 49.07723 9.76126 10827 ft 302 kts 195°
2026-05-06 18:18 49.05726 9.75390 10803 ft 291 kts 195°
2026-05-06 18:19 49.03756 9.74661 10578 ft 294 kts 195°
2026-05-06 18:19 49.01747 9.73917 10140 ft 297 kts 195°
2026-05-06 18:19 48.99782 9.73192 9709 ft 283 kts 195°
2026-05-06 18:19 48.97925 9.72510 9220 ft 266 kts 195°
2026-05-06 18:20 48.96177 9.71868 8758 ft 252 kts 195°
2026-05-06 18:20 48.94515 9.71257 8290 ft 240 kts 196°
2026-05-06 18:20 48.92881 9.70891 7833 ft 237 kts 186°
2026-05-06 18:20 48.91230 9.70800 7427 ft 238 kts 184°
2026-05-06 18:21 48.89573 9.70752 7027 ft 239 kts 184°
2026-05-06 18:21 48.87917 9.70716 6564 ft 240 kts 184°
2026-05-06 18:21 48.86239 9.70702 6153 ft 240 kts 184°
2026-05-06 18:21 48.84615 9.70698 5996 ft 225 kts 184°
2026-05-06 18:22 48.83091 9.70706 5992 ft 214 kts 184°
2026-05-06 18:22 48.81634 9.70718 6035 ft 209 kts 184°
2026-05-06 18:22 48.80185 9.70740 6024 ft 213 kts 184°
2026-05-06 18:22 48.78738 9.70469 5995 ft 208 kts 207°
2026-05-06 18:23 48.77565 9.69190 6018 ft 206 kts 224°
2026-05-06 18:23 48.76481 9.67748 5860 ft 208 kts 224°
2026-05-06 18:23 48.75410 9.66337 5535 ft 203 kts 224°
2026-05-06 18:23 48.74389 9.64954 5203 ft 190 kts 231°
2026-05-06 18:24 48.73968 9.63244 4983 ft 167 kts 279°
2026-05-06 18:24 48.74301 9.61490 5049 ft 178 kts 282°
2026-05-06 18:24 48.74561 9.59682 5046 ft 173 kts 279°
2026-05-06 18:24 48.74788 9.57905 4921 ft 170 kts 279°
2026-05-06 18:25 48.75005 9.56139 4654 ft 170 kts 281°
2026-05-06 18:25 48.75229 9.54419 4235 ft 164 kts 268°
2026-05-06 18:25 48.74917 9.52774 4066 ft 165 kts 251°
2026-05-06 18:25 48.74564 9.51106 4058 ft 165 kts 253°
2026-05-06 18:26 48.74223 9.49465 4021 ft 162 kts 253°
2026-05-06 18:26 48.73883 9.47849 4014 ft 162 kts 253°
2026-05-06 18:26 48.73540 9.46214 4013 ft 164 kts 253°
2026-05-06 18:26 48.73226 9.44578 3969 ft 164 kts 254°
2026-05-06 18:27 48.72910 9.42907 3708 ft 163 kts 254°
2026-05-06 18:27 48.72603 9.41282 3526 ft 159 kts 255°
2026-05-06 18:27 48.72294 9.39651 3305 ft 160 kts 254°
2026-05-06 18:27 48.71989 9.38037 3081 ft 157 kts 255°
2026-05-06 18:28 48.71704 9.36530 2865 ft 141 kts 254°
2026-05-06 18:28 48.71442 9.35151 2680 ft 133 kts 253°
2026-05-06 18:28 48.71194 9.33837 2532 ft 131 kts 253°
2026-05-06 18:28 48.70941 9.32503 2345 ft 130 kts 253°
2026-05-06 18:29 48.70707 9.31270 2143 ft 118 kts 253°
2026-05-06 18:29 48.70492 9.30132 1972 ft 108 kts 252°
2026-05-06 18:29 48.70274 9.28986 1911 ft 119 kts 253°
2026-05-06 18:29 48.70028 9.27819 1676 ft 114 kts 247°
2026-05-06 18:30 48.69733 9.26674 1631 ft 120 kts 242°
2026-05-06 18:30 48.69513 9.25473 1433 ft 118 kts 258°
2026-05-06 18:30 48.69353 9.24145 1300 ft 134 kts 256°
2026-05-06 18:31 48.69262 9.23185 1290 ft 8 kts 335°
2026-05-06 18:31 48.69318 9.23159 1290 ft 9 kts 339°
2026-05-06 18:31 48.69341 9.23154 1290 ft 0 kts 354°
2026-05-06 18:32 48.69346 9.23152 1290 ft 1 kts 347°
2026-05-06 18:32 48.69350 9.23149 1290 ft 0 kts 336°
2026-05-06 18:32 48.69354 9.23144 1290 ft 1 kts 323°